Location: Góry Miechowskie
(50.3599°N, 20.1803°E)
Time: 01:43:15
(UTC+00:00)

Transit 2A Rocket - Pass Details

Date: 19 September 2024
Orbit: 582 x 908 km, 66.7° (Epoch: 10 October)

Event Time Altitude Azimuth Distance (km) Brightness Sun altitude
Rises 03:27:33 0° 319° (NW) 3,537 8.2 -9.3°
Reaches altitude 10° 03:30:37 10° 332° (NNW) 2,573 7.6 -8.9°
Maximum altitude 03:35:27 25° 26° (NNE) 1,704 7.3 -8.1°
Drops below altitude 10° 03:40:03 10° 80° (E) 2,440 9.4 -7.4°
Sets 03:42:52 0° 94° (E) 3,316 10.2 -6.9°
